Weather History for Auburn, IN

Change the Weather History Date:

Saturday, September 21, 2013

  Actual Average (KFWA) Record (KFWA)
Temperature  
Mean Temperature 60 °F 62 °F  
Max Temperature 69 °F 74 °F 93 °F (1908)
Min Temperature 50 °F 50 °F 32 °F (1897)
Degree Days  
Heating Degree Days 6 5  
Month to date heating degree days 48  
Since 1 July heating degree days 60  
Cooling Degree Days 0 2  
Month to date cooling degree days 71  
Year to date cooling degree days 788  
Growing Degree Days 10 (Base 50)    
Moisture  
Dew Point 50 °F    
Average Humidity 69    
Maximum Humidity 94    
Minimum Humidity 35    
Precipitation  
Precipitation 0.01 in 0.10 in 2.00 in (1992)
Month to date precipitation 1.97  
Year to date precipitation 28.81  
Snow  
Snow 0.00 in 0.00 in 0.00 in (2002)
Month to date snowfall 0.0  
Since 1 July snowfall 0.0  
Since 1 September snowfall 0.0  
Snow Depth -    
Sea Level Pressure  
Sea Level Pressure 29.81 in    
Wind  
Wind Speed 7 mph (WNW)    
Max Wind Speed 17 mph    
Max Gust Speed 24 mph    
T = Trace of Precipitation, MM = Missing Value Source: NWS Daily Summary

Daily Weather History Graph

Daily Weather History Graph

Search for Another Location

Airport:

Trip Planner

Search our weather history database for the weather conditions in past years. The results will help you decide how hot, cold, wet, or windy it might be!

Date:

Astronomy

Sep. 21, 2013 Rise Set
Actual Time 7:26 AM EDT 7:38 PM EDT
Civil Twilight 6:59 AM EDT 8:06 PM EDT
Nautical Twilight 6:27 AM EDT 8:38 PM EDT
Astronomical Twilight 5:53 AM EDT 9:11 PM EDT
Moon 8:46 PM EDT (9/21) 9:46 AM EDT (9/21)
Length of Visible Light 13h 06m
Length of Day
12h 11m
Waning Gibbous, 94% of the Moon is Illuminated
Sep 21
Waning Gibbous
Sep 26
Last Quarter
Oct 4
New
Oct 11
First Quarter
Oct 18
Full

Hourly Weather History & Observations

Time (EDT) Temp. Dew Point Humidity Pressure Visibility Wind Dir Wind Speed Gust Speed Precip Events Conditions
12:15 AM 66.2 °F 62.6 °F 88% 29.80 in - West 6.9 mph - N/A   Unknown
12:35 AM 66.2 °F 62.6 °F 88% 29.79 in - WNW 4.6 mph - 0.01 in   Unknown
12:55 AM 64.4 °F 60.8 °F 88% 29.79 in - WNW 6.9 mph - 0.01 in   Unknown
1:15 AM 64.4 °F 60.8 °F 88% 29.79 in - WNW 4.6 mph - N/A   Unknown
1:35 AM 64.4 °F 59.0 °F 83% 29.78 in - WNW 5.8 mph - N/A   Overcast
1:55 AM 62.6 °F 59.0 °F 88% 29.79 in - WNW 9.2 mph - N/A   Overcast
2:15 AM 62.6 °F 59.0 °F 88% 29.79 in - WNW 10.4 mph - N/A   Overcast
2:35 AM 62.6 °F 57.2 °F 82% 29.79 in - WNW 6.9 mph - N/A   Overcast
2:55 AM 62.6 °F 55.4 °F 77% 29.78 in - WNW 6.9 mph - N/A   Overcast
3:15 AM 60.8 °F 57.2 °F 88% 29.78 in - West 4.6 mph - N/A   Unknown
3:35 AM 60.8 °F 55.4 °F 82% 29.77 in - West 6.9 mph - N/A   Mostly Cloudy
3:55 AM 60.8 °F 55.4 °F 82% 29.77 in - West 4.6 mph - N/A   Unknown
4:15 AM 60.8 °F 55.4 °F 82% 29.77 in - West 5.8 mph - N/A   Clear
4:35 AM 59.0 °F 55.4 °F 88% 29.76 in - West 4.6 mph - N/A   Unknown
4:55 AM 59.0 °F 55.4 °F 88% 29.76 in - West 3.5 mph - N/A   Mostly Cloudy
5:15 AM 59.0 °F 53.6 °F 82% 29.76 in - West 3.5 mph - N/A   Unknown
5:35 AM 59.0 °F 53.6 °F 82% 29.76 in - West 4.6 mph - N/A   Unknown
5:55 AM 59.0 °F 53.6 °F 82% 29.75 in - West 4.6 mph - N/A   Unknown
6:15 AM 57.2 °F 53.6 °F 88% 29.76 in - West 3.5 mph - N/A   Unknown
6:35 AM 57.2 °F 53.6 °F 88% 29.76 in - West 3.5 mph - N/A   Unknown
6:55 AM 57.2 °F 53.6 °F 88% 29.76 in - West 3.5 mph - N/A   Unknown
7:15 AM 55.4 °F 53.6 °F 94% 29.76 in - West 3.5 mph - N/A   Unknown
7:35 AM 55.4 °F 53.6 °F 94% 29.77 in - West 3.5 mph - N/A   Unknown
7:55 AM 55.4 °F 53.6 °F 94% 29.77 in - Calm Calm - N/A   Unknown
8:15 AM 55.4 °F 53.6 °F 94% 29.78 in - West 4.6 mph - N/A   Unknown
8:35 AM 55.4 °F 53.6 °F 94% 29.78 in - West 4.6 mph - N/A   Unknown
8:55 AM 55.4 °F 53.6 °F 94% 29.78 in - West 4.6 mph - N/A   Unknown
9:15 AM 59.0 °F 55.4 °F 88% 29.78 in - West 8.1 mph - N/A   Unknown
9:35 AM 60.8 °F 55.4 °F 82% 29.78 in - NW 10.4 mph - N/A   Mostly Cloudy
9:55 AM 60.8 °F 55.4 °F 82% 29.79 in - WNW 10.4 mph - N/A   Overcast
10:15 AM 60.8 °F 55.4 °F 82% 29.79 in - NW 11.5 mph - N/A   Overcast
10:35 AM 62.6 °F 53.6 °F 72% 29.80 in - NNW 11.5 mph 17.3 mph N/A   Mostly Cloudy
10:55 AM 62.6 °F 53.6 °F 72% 29.80 in - NW 11.5 mph 16.1 mph N/A   Scattered Clouds
11:15 AM 64.4 °F 51.8 °F 64% 29.80 in - NW 6.9 mph - N/A   Scattered Clouds
11:35 AM 64.4 °F 50.0 °F 59% 29.80 in - NNW 15.0 mph 19.6 mph N/A   Mostly Cloudy
11:55 AM 64.4 °F 50.0 °F 59% 29.81 in - NW 12.7 mph 18.4 mph N/A   Mostly Cloudy
12:15 PM 68.0 °F 50.0 °F 52% 29.81 in - WNW 16.1 mph 20.7 mph N/A   Mostly Cloudy
12:35 PM 68.0 °F 48.2 °F 49% 29.81 in - NW 11.5 mph 18.4 mph N/A   Scattered Clouds
12:55 PM 68.0 °F 44.6 °F 43% 29.81 in - NW 12.7 mph 21.9 mph N/A   Clear
1:15 PM 68.0 °F 44.6 °F 43% 29.81 in - NW 10.4 mph 20.7 mph N/A   Scattered Clouds
1:35 PM 69.8 °F 44.6 °F 40% 29.81 in - WNW 16.1 mph 21.9 mph N/A   Scattered Clouds
1:55 PM 68.0 °F 42.8 °F 40% 29.81 in - NW 10.4 mph 20.7 mph N/A   Scattered Clouds
2:15 PM 69.8 °F 44.6 °F 40% 29.80 in - NW 11.5 mph 16.1 mph N/A   Scattered Clouds
2:35 PM 68.0 °F 44.6 °F 43% 29.80 in - NW 13.8 mph 19.6 mph N/A   Mostly Cloudy
2:55 PM 69.8 °F 41.0 °F 35% 29.80 in - NW 11.5 mph 24.2 mph N/A   Scattered Clouds
3:15 PM 69.8 °F 42.8 °F 38% 29.81 in - WNW 13.8 mph 19.6 mph N/A   Scattered Clouds
3:35 PM 69.8 °F 42.8 °F 38% 29.81 in - NW 16.1 mph 24.2 mph N/A   Mostly Cloudy
3:55 PM 64.4 °F 42.8 °F 45% 29.82 in - NW 13.8 mph 19.6 mph N/A   Overcast
4:15 PM 69.8 °F 44.6 °F 40% 29.81 in - West 17.3 mph 21.9 mph N/A   Mostly Cloudy
4:35 PM 69.8 °F 41.0 °F 35% 29.81 in - WNW 15.0 mph 20.7 mph N/A   Scattered Clouds
4:55 PM 66.2 °F 42.8 °F 43% 29.82 in - NW 11.5 mph 20.7 mph N/A   Scattered Clouds
5:15 PM 64.4 °F 41.0 °F 42% 29.83 in - NW 13.8 mph 21.9 mph N/A   Scattered Clouds
5:35 PM 68.0 °F 42.8 °F 40% 29.83 in - NW 12.7 mph 18.4 mph N/A   Clear
5:55 PM 64.4 °F 42.8 °F 45% 29.83 in - WNW 10.4 mph 18.4 mph N/A   Clear
6:15 PM 62.6 °F 42.8 °F 48% 29.84 in - WNW 17.3 mph 23.0 mph N/A   Mostly Cloudy
6:35 PM 62.6 °F 42.8 °F 48% 29.85 in - WNW 12.7 mph 20.7 mph N/A   Overcast
6:55 PM 60.8 °F 42.8 °F 52% 29.85 in - NW 11.5 mph 20.7 mph N/A   Scattered Clouds
7:15 PM 59.0 °F 42.8 °F 55% 29.86 in - NW 9.2 mph - N/A   Clear
7:35 PM 59.0 °F 42.8 °F 55% 29.86 in - WNW 11.5 mph - N/A   Clear
7:55 PM 59.0 °F 42.8 °F 55% 29.87 in - NW 6.9 mph - N/A   Scattered Clouds
8:15 PM 55.4 °F 42.8 °F 63% 29.87 in - NW 6.9 mph - N/A   Clear
8:35 PM 55.4 °F 42.8 °F 63% 29.88 in - NW 5.8 mph - N/A   Clear
8:55 PM 53.6 °F 42.8 °F 67% 29.88 in - WNW 5.8 mph - N/A   Clear
9:15 PM 53.6 °F 42.8 °F 67% 29.88 in - NW 4.6 mph - N/A   Clear
9:35 PM 53.6 °F 44.6 °F 72% 29.89 in - WNW 4.6 mph - N/A   Clear
9:55 PM 51.8 °F 44.6 °F 76% 29.89 in - NW 3.5 mph - N/A   Clear
10:15 PM 50.0 °F 42.8 °F 76% 29.89 in - WNW 3.5 mph - N/A   Clear
10:35 PM 50.0 °F 44.6 °F 82% 29.90 in - Calm Calm - N/A   Clear
10:55 PM 50.0 °F 44.6 °F 82% 29.90 in - Calm Calm - N/A   Clear
11:15 PM 50.0 °F 44.6 °F 82% 29.91 in - Calm Calm - N/A   Clear
11:35 PM 50.0 °F 44.6 °F 82% 29.91 in - Calm Calm - N/A   Unknown
11:55 PM 50.0 °F 46.4 °F 87% 29.91 in - WNW 3.5 mph - N/A   Mostly Cloudy